Wind_Speed
49 53 55 56 58 58 57 56 55 56 55 49 50 49 48 45 42 40 40 41 39 35 34 27 25 25 28 26 27 24 23 22
49 50 52 54 55 55 54 55 57 55 54 55 52 48 45 45 45 42 42 42 39 33 33 27 24 25 27 27 24 23 23 24
49 48 48 49 50 52 53 55 56 55 54 53 52 48 46 44 48 46 44 41 37 35 31 28 24 26 27 27 23 23 24 26
50 50 51 52 51 51 53 55 56 55 54 56 52 51 50 50 52 47 45 38 38 36 32 29 25 27 26 25 23 23 26 27
53 53 54 55 56 55 58 58 58 55 56 57 54 50 48 47 48 45 46 39 40 39 37 30 26 27 26 24 25 24 27 30
57 59 59 61 59 57 58 60 60 57 56 57 56 51 46 47 48 45 47 39 38 42 37 31 27 28 24 24 27 26 28 32
56 56 57 57 54 53 53 54 57 56 54 53 52 48 50 49 48 47 47 43 45 42 37 34 28 27 25 25 28 30 28 34
50 50 46 42 46 43 45 48 49 51 45 48 47 41 46 48 45 49 48 45 46 39 35 36 31 28 26 27 28 31 27 32
42 41 35 36 30 33 30 36 45 42 48 54 47 42 34 40 44 51 50 48 48 40 42 39 32 31 26 27 29 30 28 32
35 34 34 34 27 29 30 38 37 38 40 39 42 43 50 42 49 57 54 53 45 44 44 39 33 33 29 27 28 31 29 33
22 22 26 26 26 24 23 29 28 41 43 44 40 45 43 44 49 52 51 47 44 45 43 40 35 36 30 27 29 32 30 32
21 21 16 22 22 19 23 31 28 24 36 49 39 41 41 39 47 53 52 46 45 44 42 42 38 37 32 28 30 32 29 32
16 18 15 24 22 20 23 22 22 27 30 46 44 45 46 45 43 50 51 48 48 45 43 43 38 39 31 31 31 31 28 28
12 13 9 15 22 21 23 24 17 18 22 29 34 35 40 42 43 51 49 51 47 46 44 42 38 34 32 34 31 31 27 23
12 14 13 12 13 23 17 18 18 16 21 25 25 24 16 30 29 27 55 54 48 47 45 39 36 34 34 34 31 31 27 23
5 6 7 11 13 16 17 16 16 16 13 19 16 14 14 18 18 37 43 48 44 35 41 37 36 34 34 35 32 31 29 25
2 5 8 9 10 13 12 19 17 17 15 15 17 16 15 15 19 21 45 34 37 36 40 39 36 33 34 36 34 31 30 28
5 6 6 7 9 10 13 12 16 17 18 19 22 19 17 19 20 27 37 31 35 36 38 36 34 34 35 35 34 33 30 29
6 4 6 8 10 8 10 14 12 19 24 23 23 20 23 19 21 25 34 27 30 36 37 36 37 38 36 35 34 33 32 31
Wind_Direction
252 252 249 247 248 249 251 254 254 259 263 254 249 250 249 252 254 252 251 249 250 254 261 270 281 290 287 279 280 277 277 276
255 254 253 254 255 253 249 250 253 255 256 258 254 250 248 248 250 247 249 247 248 251 257 268 278 287 283 273 279 273 274 273
257 259 258 256 255 255 253 252 250 251 250 253 250 249 242 242 244 243 243 242 242 246 255 262 272 281 277 269 277 271 271 270
265 263 258 257 257 259 257 257 257 251 251 251 247 243 245 238 241 241 242 239 240 242 256 257 266 276 270 268 275 275 270 268
270 265 265 262 258 256 256 255 254 249 245 249 247 243 239 244 242 243 242 235 234 242 245 252 262 270 262 271 274 273 273 267
269 268 265 262 258 252 251 249 251 249 244 243 244 241 232 238 237 236 238 230 229 241 244 250 259 264 259 269 273 274 277 273
272 267 262 259 257 256 251 250 250 242 237 237 238 238 232 230 232 233 232 224 228 239 237 245 253 259 260 267 273 273 275 280
269 261 262 261 255 253 248 245 237 232 228 229 230 225 228 230 230 233 227 226 230 238 238 243 249 255 259 268 269 269 279 276
271 269 266 260 253 248 251 238 232 232 223 229 224 218 227 226 226 229 223 228 231 232 234 246 248 252 257 264 265 266 273 268
272 270 265 262 253 244 241 241 225 229 210 219 225 215 225 221 226 228 219 224 226 229 233 243 245 251 256 262 264 267 271 264
288 269 258 238 236 235 237 226 229 224 214 219 217 216 218 221 226 227 230 229 226 229 235 241 242 250 254 259 262 269 270 263
273 271 240 225 218 233 242 238 241 240 218 211 213 218 223 223 228 232 230 227 224 227 234 239 241 251 255 258 259 268 267 264
269 230 222 208 215 235 250 238 240 233 218 211 224 219 223 223 225 230 236 228 228 226 230 240 244 249 255 257 259 269 268 266
262 248 235 234 229 232 239 249 240 232 215 219 224 224 224 231 235 239 230 227 228 226 229 235 241 249 254 253 256 265 264 269
248 251 250 262 246 235 249 244 260 261 226 226 232 235 237 221 236 246 227 227 234 229 228 231 240 245 251 253 254 261 258 266
265 258 278 282 272 248 246 237 239 254 248 224 225 226 241 243 248 219 214 224 237 235 227 232 239 245 251 251 251 257 257 260
249 270 270 284 285 262 252 241 235 238 240 235 237 243 245 250 235 215 203 234 220 231 226 233 239 248 255 254 250 252 257 260
270 270 259 283 274 275 266 264 239 231 237 236 238 244 253 253 240 240 243 239 240 228 228 234 243 249 253 253 254 253 252 253
259 276 283 286 286 287 280 260 246 236 234 229 236 238 222 243 236 231 238 238 228 227 230 235 246 250 254 256 255 255 256 256
Height
5690 5689 5689 5691 5693 5696 5698 5700 5703 5706 5711 5717 5718 5721 5726 5730 5734 5736 5737 5740 5741 5743 5745 5746 5747 5747 5746 5747 5747 5747 5748 5748
5678 5680 5681 5681 5682 5683 5684 5688 5691 5694 5697 5702 5708 5711 5717 5721 5724 5727 5730 5731 5734 5737 5738 5740 5742 5741 5740 5742 5742 5741 5743 5743
5669 5671 5672 5671 5672 5671 5672 5675 5678 5682 5684 5690 5694 5700 5704 5710 5712 5715 5719 5723 5727 5729 5732 5733 5735 5734 5735 5736 5737 5737 5738 5738
5657 5658 5657 5657 5657 5657 5660 5662 5666 5669 5673 5675 5682 5686 5692 5695 5700 5704 5710 5715 5719 5721 5725 5726 5728 5728 5729 5730 5731 5732 5733 5734
5643 5644 5643 5643 5643 5644 5645 5648 5652 5656 5659 5664 5670 5677 5681 5687 5694 5697 5701 5705 5709 5711 5716 5719 5721 5721 5723 5723 5725 5725 5727 5728
5628 5627 5627 5626 5628 5628 5629 5633 5637 5642 5647 5653 5657 5664 5671 5676 5684 5686 5690 5696 5701 5704 5707 5712 5714 5714 5716 5716 5718 5718 5719 5720
5611 5611 5611 5610 5612 5614 5615 5618 5623 5628 5634 5642 5647 5654 5660 5665 5674 5677 5683 5686 5690 5695 5699 5705 5706 5706 5708 5709 5710 5711 5710 5711
5598 5597 5597 5598 5598 5599 5600 5605 5611 5615 5623 5631 5639 5644 5650 5655 5664 5669 5674 5677 5681 5687 5692 5696 5697 5698 5700 5702 5703 5704 5702 5704
5587 5587 5586 5587 5587 5589 5591 5595 5599 5603 5611 5619 5627 5634 5640 5646 5653 5659 5663 5667 5672 5678 5682 5687 5688 5690 5692 5694 5696 5697 5696 5697
5577 5576 5576 5577 5580 5582 5585 5588 5590 5594 5600 5609 5617 5624 5630 5637 5642 5647 5650 5656 5663 5669 5673 5678 5680 5681 5684 5686 5688 5689 5688 5690
5567 5567 5568 5571 5576 5578 5580 5582 5585 5587 5594 5602 5609 5616 5621 5626 5633 5641 5646 5650 5655 5660 5666 5669 5671 5674 5676 5679 5680 5680 5680 5681
5562 5562 5563 5567 5570 5573 5575 5577 5578 5580 5584 5595 5603 5609 5614 5621 5626 5631 5636 5641 5644 5651 5656 5659 5663 5666 5668 5671 5673 5673 5673 5673
5558 5558 5560 5563 5567 5570 5570 5572 5576 5579 5582 5588 5593 5600 5608 5612 5616 5623 5626 5633 5635 5640 5645 5651 5655 5659 5662 5664 5665 5666 5666 5665
5556 5556 5558 5561 5563 5566 5568 5569 5571 5575 5579 5583 5587 5593 5600 5603 5609 5612 5616 5623 5627 5632 5637 5642 5647 5651 5655 5657 5658 5659 5659 5658
5554 5554 5556 5558 5560 5562 5564 5566 5568 5570 5575 5580 5584 5589 5592 5593 5599 5601 5607 5614 5619 5624 5629 5635 5640 5643 5647 5648 5650 5652 5653 5652
5551 5552 5553 5555 5555 5557 5561 5564 5566 5568 5571 5575 5579 5583 5587 5590 5587 5590 5596 5605 5611 5619 5623 5628 5632 5636 5638 5641 5643 5645 5646 5646
5550 5551 5551 5552 5554 5556 5558 5561 5564 5566 5569 5573 5576 5580 5584 5586 5588 5591 5592 5599 5604 5611 5614 5621 5625 5628 5631 5634 5636 5638 5639 5640
5549 5549 5550 5551 5552 5553 5554 5556 5559 5563 5565 5570 5574 5577 5580 5582 5585 5587 5589 5595 5600 5603 5610 5615 5618 5620 5624 5626 5628 5631 5632 5633
5546 5547 5548 5549 5549 5550 5551 5552 5554 5558 5562 5566 5569 5572 5572 5575 5581 5582 5586 5590 5592 5597 5602 5607 5611 5613 5616 5617 5619 5622 5623 5624